Location: Coopersdale
(40.3556°N, 78.9372°W)
Time: 21:54:43
(UTC+00:00)

Courier 1B - Pass Details

Date: 21 January 2021
Orbit: 962 x 1209 km, 28.3° (Epoch: 25 February)

Event Time Altitude Azimuth Distance (km) Brightness Sun altitude
Exits shadow 10:46:57 13° 223° (SW) 2,540 9.4 -20.1°
Maximum altitude 10:49:13 15° 201° (SSW) 2,410 9.4 -19.7°
Drops below altitude 10° 10:52:52 10° 168° (SSE) 2,808 10.2 -19.0°
Sets 10:56:55 0° 147° (SSE) 3,812 11.3 -18.3°
